NOAA NWS Hourly Roundups by Site

Regional Weather Roundup for State College, PA

To Select Another Site Choose from List

Select Site:  

000
ASUS41 KCTP 271310
RWRCTP

REGIONAL WEATHER ROUNDUP
NATIONAL WEATHER SERVICE STATE COLLEGE PA
900 AM EDT SUN MAY 27 2018

Note: "fair" indicates few or no clouds below 12,000 feet with no
significant weather and/or obstructions to visibility.

* = STATION THAT DOES NOT REPORT PRECIPITATION /E.G. RAIN...SNOW...ETC/
    THUNDER OR FOG.

PAZ002>004-007>009-013>016-020>023-029>032-271400-
WESTERN PENNSYLVANIA

CITY           SKY/WX    TMP DP  RH WIND       PRES   REMARKS
ERIE           FAIR      74  66  76 S8        29.93R
MEADVILLE      PTSUNNY   69  67  93 S6        29.96R
FRANKLIN*      CLOUDY    67  65  93 VRB3      29.98R
NEW CASTLE     CLOUDY    69  69 100 CALM      29.96R
BEAVER COUNTY  NOT AVBL
BUTLER*        PTSUNNY   68  66  93 CALM      29.97R
PITTSBURGH INT CLOUDY    68  66  93 SW3       29.95R
PITTSBURGH     CLOUDY    69  68  96 S7        29.95R
INDIANA*       CLOUDY    66  66 100 E6        30.01R
LATROBE        CLOUDY    68  68 100 CALM      29.97R
WASHINGTON CO* CLOUDY    70  68  93 SW3       29.98R
$$

PAZ004>006-010>012-017>019-024>028-033>037-041-042-045-046-049>053-271400-
CENTRAL PENNSYLVANIA

CITY           SKY/WX    TMP DP  RH WIND       PRES   REMARKS
BRADFORD       FAIR      66  62  87 S5        30.00R
DUBOIS         CLOUDY    66  64  93 VRB3      29.98R FOG
CLEARFIELD     CLOUDY    65  64  97 CALM      30.00R FOG
JOHNSTOWN      LGT RAIN  68  65  90 S3        30.00R
ALTOONA        PTSUNNY   71  66  84 NE3       30.00R HAZE
STATE COLLEGE  CLOUDY    66  64  94 CALM      29.99R FOG
WILLIAMSPORT   CLOUDY    68  65  90 CALM      29.96R
SELINSGROVE    CLOUDY    70  65  84 NE3       29.96R
FT INDIANTOWN  FAIR      72  67  82 NE7       29.94R
CAPITAL CITY   FAIR      78  66  66 E5        29.93R
HARRISBURG     PTSUNNY   76  68  76 N3        29.92R
YORK           CLOUDY    74  70  87 NW5       29.93R
$$

PAZ038>040-043-044-047-048-054-055-060>062-067>071-271400-
EASTERN PENNSYLVANIA

CITY           SKY/WX    TMP DP  RH WIND       PRES   REMARKS
SCRANTON       CLOUDY    66  65  96 E5        30.01R
MOUNT POCONO   CLOUDY    62  62 100 E8        30.02R
ALLENTOWN      CLOUDY    70  62  76 E10       29.98R
QUAKERTOWN*    CLOUDY    64  64 100 NE6G16    29.98R
READING        PTSUNNY   72  68  87 NE13      29.94R
LANCASTER      CLOUDY    77  72  84 CALM      29.93R
COATESVILLE    CLOUDY    73  72  94 N3        29.96R
POTTSTOWN      RAIN      64  64 100 NE9       29.98R FOG
BLUE BELL      CLOUDY    63  63 100 NE10      29.98R VSB 1/2
DOYLESTOWN     LGT RAIN  63  63 100 VRB3      29.97R
WILLOW GROVE   NOT AVBL
NORTH PHILA    RAIN      67  64  90 NE14      29.97R FOG
PHILADELPHIA   CLOUDY    68  65  90 NE12      29.93R
$$


 

View Past Reports for State College, PA.

Products Courtesy of NOAA-NWS
NWS Information Parsing Script by Ken True at Saratoga Weather - Script by SE Lincoln Weather.